Date_Time,Julian_Date,Latitude,Longitude,Instrument_Depth,U,V,Speed,Direction
(yyyy-mm-dd hh:mn:ss UTC),(JD),(+ deg. North),(+ deg. East),(m),(cm/s),(cm/s),(cm/s),(deg True)
1980-04-23 18:00:00 UTC,2444353.250000,27.9758,-93.5433,0950,2.46,-3.15,4.0000,142.0000
1980-04-23 18:20:00 UTC,2444353.263889,27.9758,-93.5433,0950,2.12,-2.12,3.0000,135.0000
1980-04-23 18:40:00 UTC,2444353.277778,27.9758,-93.5433,0950,1.93,-2.30,3.0000,140.0000
1980-04-23 19:00:00 UTC,2444353.291667,27.9758,-93.5433,0950,1.29,-1.53,2.0000,140.0000
1980-04-23 19:20:00 UTC,2444353.305556,27.9758,-93.5433,0950,0.85,-1.81,2.0000,155.0000
1980-04-23 19:40:00 UTC,2444353.319444,27.9758,-93.5433,0950,0.65,-1.89,2.0000,161.0000
1980-04-23 20:00:00 UTC,2444353.333333,27.9758,-93.5433,0950,2.01,-2.23,3.0000,138.0000
1980-04-23 20:20:00 UTC,2444353.347222,27.9758,-93.5433,0950,1.93,-2.30,3.0000,140.0000
1980-04-23 20:40:00 UTC,2444353.361111,27.9758,-93.5433,0950,3.94,-3.08,5.0000,128.0000
1980-04-23 21:00:00 UTC,2444353.375000,27.9758,-93.5433,0950,2.93,-2.73,4.0000,133.0000
1980-04-23 21:20:00 UTC,2444353.388889,27.9758,-93.5433,0950,3.02,-2.62,4.0000,131.0000
1980-04-23 21:40:00 UTC,2444353.402778,27.9758,-93.5433,0950,2.83,-2.83,4.0000,135.0000
1980-04-23 22:00:00 UTC,2444353.416667,27.9758,-93.5433,0950,1.85,-2.36,3.0000,142.0000
1980-04-23 22:20:00 UTC,2444353.430556,27.9758,-93.5433,0950,3.21,-3.83,5.0000,140.0000
1980-04-23 22:40:00 UTC,2444353.444444,27.9758,-93.5433,0950,3.53,-4.85,6.0000,144.0000
1980-04-23 23:00:00 UTC,2444353.458333,27.9758,-93.5433,0950,3.81,-5.87,7.0000,147.0000
1980-04-23 23:20:00 UTC,2444353.472222,27.9758,-93.5433,0950,3.09,-5.14,6.0000,149.0000
1980-04-23 23:40:00 UTC,2444353.486111,27.9758,-93.5433,0950,4.93,-6.30,8.0000,142.0000
1980-04-24 00:00:00 UTC,2444353.500000,27.9758,-93.5433,0950,3.09,-5.14,6.0000,149.0000
1980-04-24 00:20:00 UTC,2444353.513889,27.9758,-93.5433,0950,2.91,-5.25,6.0000,151.0000
1980-04-24 00:40:00 UTC,2444353.527778,27.9758,-93.5433,0950,2.63,-5.39,6.0000,154.0000
1980-04-24 01:00:00 UTC,2444353.541667,27.9758,-93.5433,0950,4.12,-6.86,8.0000,149.0000
1980-04-24 01:20:00 UTC,2444353.555556,27.9758,-93.5433,0950,3.38,-7.25,8.0000,155.0000
1980-04-24 01:40:00 UTC,2444353.569444,27.9758,-93.5433,0950,2.07,-7.73,8.0000,165.0000
1980-04-24 02:00:00 UTC,2444353.583333,27.9758,-93.5433,0950,3.40,-10.46,11.0000,162.0000
1980-04-24 02:20:00 UTC,2444353.597222,27.9758,-93.5433,0950,4.82,-9.89,11.0000,154.0000
1980-04-24 02:40:00 UTC,2444353.611111,27.9758,-93.5433,0950,4.07,-9.14,10.0000,156.0000
1980-04-24 03:00:00 UTC,2444353.625000,27.9758,-93.5433,0950,3.00,-7.42,8.0000,158.0000
1980-04-24 03:20:00 UTC,2444353.638889,27.9758,-93.5433,0950,2.51,-6.54,7.0000,159.0000
1980-04-24 03:40:00 UTC,2444353.652778,27.9758,-93.5433,0950,4.69,-8.83,10.0000,152.0000
1980-04-24 04:00:00 UTC,2444353.666667,27.9758,-93.5433,0950,4.36,-6.71,8.0000,147.0000
1980-04-24 04:20:00 UTC,2444353.680556,27.9758,-93.5433,0950,5.88,-8.09,10.0000,144.0000
1980-04-24 04:40:00 UTC,2444353.694444,27.9758,-93.5433,0950,7.50,-8.04,11.0000,137.0000
1980-04-24 05:00:00 UTC,2444353.708333,27.9758,-93.5433,0950,7.07,-7.07,10.0000,135.0000
1980-04-24 05:20:00 UTC,2444353.722222,27.9758,-93.5433,0950,4.31,-5.52,7.0000,142.0000
1980-04-24 05:40:00 UTC,2444353.736111,27.9758,-93.5433,0950,2.29,-3.28,4.0000,145.0000
1980-04-24 06:00:00 UTC,2444353.750000,27.9758,-93.5433,0950,3.60,-3.47,5.0000,134.0000
1980-04-24 06:20:00 UTC,2444353.763889,27.9758,-93.5433,0950,7.09,-5.54,9.0000,128.0000
1980-04-24 06:40:00 UTC,2444353.777778,27.9758,-93.5433,0950,6.14,-6.58,9.0000,137.0000
1980-04-24 07:00:00 UTC,2444353.791667,27.9758,-93.5433,0950,4.68,-5.20,7.0000,138.0000
1980-04-24 07:20:00 UTC,2444353.805556,27.9758,-93.5433,0950,3.32,-2.24,4.0000,124.0000
1980-04-24 07:40:00 UTC,2444353.819444,27.9758,-93.5433,0950,6.73,-1.93,7.0000,106.0000
1980-04-24 08:00:00 UTC,2444353.833333,27.9758,-93.5433,0950,6.82,-1.57,7.0000,103.0000
1980-04-24 08:20:00 UTC,2444353.847222,27.9758,-93.5433,0950,6.58,-2.39,7.0000,110.0000
1980-04-24 08:40:00 UTC,2444353.861111,27.9758,-93.5433,0950,4.67,-1.79,5.0000,111.0000
1980-04-24 09:00:00 UTC,2444353.875000,27.9758,-93.5433,0950,4.98,-0.44,5.0000,95.0000
1980-04-24 09:20:00 UTC,2444353.888889,27.9758,-93.5433,0950,4.85,1.21,5.0000,76.0000
1980-04-24 09:40:00 UTC,2444353.902778,27.9758,-93.5433,0950,5.93,-0.94,6.0000,99.0000
1980-04-24 10:00:00 UTC,2444353.916667,27.9758,-93.5433,0950,5.39,2.63,6.0000,64.0000
1980-04-24 10:20:00 UTC,2444353.930556,27.9758,-93.5433,0950,4.57,2.03,5.0000,66.0000
1980-04-24 10:40:00 UTC,2444353.944444,27.9758,-93.5433,0950,3.71,1.50,4.0000,68.0000
1980-04-24 11:00:00 UTC,2444353.958333,27.9758,-93.5433,0950,3.98,-0.42,4.0000,96.0000
1980-04-24 11:20:00 UTC,2444353.972222,27.9758,-93.5433,0950,5.00,0.09,5.0000,89.0000
1980-04-24 11:40:00 UTC,2444353.986111,27.9758,-93.5433,0950,5.00,0.17,5.0000,88.0000
1980-04-24 12:00:00 UTC,2444354.000000,27.9758,-93.5433,0950,4.87,-1.12,5.0000,103.0000
1980-04-24 12:20:00 UTC,2444354.013889,27.9758,-93.5433,0950,4.85,-1.21,5.0000,104.0000
1980-04-24 12:40:00 UTC,2444354.027778,27.9758,-93.5433,0950,4.94,-0.78,5.0000,99.0000
1980-04-24 13:00:00 UTC,2444354.041667,27.9758,-93.5433,0950,7.94,-0.97,8.0000,97.0000
1980-04-24 13:20:00 UTC,2444354.055556,27.9758,-93.5433,0950,5.60,-2.15,6.0000,111.0000
1980-04-24 13:40:00 UTC,2444354.069444,27.9758,-93.5433,0950,5.36,-4.50,7.0000,130.0000
1980-04-24 14:00:00 UTC,2444354.083333,27.9758,-93.5433,0950,7.28,-5.29,9.0000,126.0000
1980-04-24 14:20:00 UTC,2444354.097222,27.9758,-93.5433,0950,8.30,-7.22,11.0000,131.0000
1980-04-24 14:40:00 UTC,2444354.111111,27.9758,-93.5433,0950,8.43,-7.07,11.0000,130.0000
1980-04-24 15:00:00 UTC,2444354.125000,27.9758,-93.5433,0950,8.49,-8.49,12.0000,135.0000
1980-04-24 15:20:00 UTC,2444354.138889,27.9758,-93.5433,0950,8.87,-9.51,13.0000,137.0000
1980-04-24 15:40:00 UTC,2444354.152778,27.9758,-93.5433,0950,9.00,-10.72,14.0000,140.0000
1980-04-24 16:00:00 UTC,2444354.166667,27.9758,-93.5433,0950,9.37,-10.40,14.0000,138.0000
1980-04-24 16:20:00 UTC,2444354.180556,27.9758,-93.5433,0950,9.90,-9.90,14.0000,135.0000
1980-04-24 16:40:00 UTC,2444354.194444,27.9758,-93.5433,0950,9.35,-9.03,13.0000,134.0000
1980-04-24 17:00:00 UTC,2444354.208333,27.9758,-93.5433,0950,7.71,-9.19,12.0000,140.0000
1980-04-24 17:20:00 UTC,2444354.222222,27.9758,-93.5433,0950,7.71,-9.19,12.0000,140.0000
1980-04-24 17:40:00 UTC,2444354.236111,27.9758,-93.5433,0950,7.46,-10.65,13.0000,145.0000
1980-04-24 18:00:00 UTC,2444354.250000,27.9758,-93.5433,0950,8.23,-11.33,14.0000,144.0000
1980-04-24 18:20:00 UTC,2444354.263889,27.9758,-93.5433,0950,8.60,-12.29,15.0000,145.0000
1980-04-24 18:40:00 UTC,2444354.277778,27.9758,-93.5433,0950,9.18,-13.11,16.0000,145.0000
1980-04-24 19:00:00 UTC,2444354.291667,27.9758,-93.5433,0950,8.17,-12.58,15.0000,147.0000
1980-04-24 19:20:00 UTC,2444354.305556,27.9758,-93.5433,0950,8.23,-11.33,14.0000,144.0000
1980-04-24 19:40:00 UTC,2444354.319444,27.9758,-93.5433,0950,7.05,-9.71,12.0000,144.0000
1980-04-24 20:00:00 UTC,2444354.333333,27.9758,-93.5433,0950,6.31,-9.01,11.0000,145.0000
1980-04-24 20:20:00 UTC,2444354.347222,27.9758,-93.5433,0950,5.16,-7.37,9.0000,145.0000
1980-04-24 20:40:00 UTC,2444354.361111,27.9758,-93.5433,0950,4.70,-6.47,8.0000,144.0000
1980-04-24 21:00:00 UTC,2444354.375000,27.9758,-93.5433,0950,5.46,-5.85,8.0000,137.0000
1980-04-24 21:20:00 UTC,2444354.388889,27.9758,-93.5433,0950,5.79,-6.89,9.0000,140.0000
1980-04-24 21:40:00 UTC,2444354.402778,27.9758,-93.5433,0950,6.16,-7.88,10.0000,142.0000
1980-04-24 22:00:00 UTC,2444354.416667,27.9758,-93.5433,0950,4.68,-5.20,7.0000,138.0000
1980-04-24 22:20:00 UTC,2444354.430556,27.9758,-93.5433,0950,3.15,-3.89,5.0000,141.0000
1980-04-24 22:40:00 UTC,2444354.444444,27.9758,-93.5433,0950,1.76,-2.43,3.0000,144.0000
1980-04-24 23:00:00 UTC,2444354.458333,27.9758,-93.5433,0950,1.03,-1.71,2.0000,149.0000
1980-04-24 23:20:00 UTC,2444354.472222,27.9758,-93.5433,0950,1.58,-1.23,2.0000,128.0000
1980-04-24 23:40:00 UTC,2444354.486111,27.9758,-93.5433,0950,0.64,-0.77,1.0000,140.0000
1980-04-25 00:00:00 UTC,2444354.500000,27.9758,-93.5433,0950,3.19,-2.41,4.0000,127.0000
1980-04-25 00:20:00 UTC,2444354.513889,27.9758,-93.5433,0950,2.05,-2.19,3.0000,137.0000
1980-04-25 00:40:00 UTC,2444354.527778,27.9758,-93.5433,0950,1.18,-1.62,2.0000,144.0000
1980-04-25 01:00:00 UTC,2444354.541667,27.9758,-93.5433,0950,3.15,-2.46,4.0000,128.0000
1980-04-25 01:20:00 UTC,2444354.555556,27.9758,-93.5433,0950,2.93,-2.73,4.0000,133.0000
1980-04-25 01:40:00 UTC,2444354.569444,27.9758,-93.5433,0950,2.83,-2.83,4.0000,135.0000
1980-04-25 02:00:00 UTC,2444354.583333,27.9758,-93.5433,0950,1.53,-1.29,2.0000,130.0000
1980-04-25 02:20:00 UTC,2444354.597222,27.9758,-93.5433,0950,1.51,-1.31,2.0000,131.0000
1980-04-25 02:40:00 UTC,2444354.611111,27.9758,-93.5433,0950,1.89,-2.33,3.0000,141.0000
1980-04-25 03:00:00 UTC,2444354.625000,27.9758,-93.5433,0950,2.19,-2.05,3.0000,133.0000
1980-04-25 03:20:00 UTC,2444354.638889,27.9758,-93.5433,0950,3.83,-3.21,5.0000,130.0000
1980-04-25 03:40:00 UTC,2444354.652778,27.9758,-93.5433,0950,3.60,-3.47,5.0000,134.0000
1980-04-25 04:00:00 UTC,2444354.666667,27.9758,-93.5433,0950,4.32,-4.17,6.0000,134.0000
1980-04-25 04:20:00 UTC,2444354.680556,27.9758,-93.5433,0950,5.04,-4.86,7.0000,134.0000
1980-04-25 04:40:00 UTC,2444354.694444,27.9758,-93.5433,0950,5.03,-6.22,8.0000,141.0000
1980-04-25 05:00:00 UTC,2444354.708333,27.9758,-93.5433,0950,4.50,-5.36,7.0000,140.0000
1980-04-25 05:20:00 UTC,2444354.722222,27.9758,-93.5433,0950,4.09,-4.39,6.0000,137.0000
1980-04-25 05:40:00 UTC,2444354.736111,27.9758,-93.5433,0950,4.24,-4.24,6.0000,135.0000
1980-04-25 06:00:00 UTC,2444354.750000,27.9758,-93.5433,0950,4.32,-4.17,6.0000,134.0000
1980-04-25 06:20:00 UTC,2444354.763889,27.9758,-93.5433,0950,4.39,-4.09,6.0000,133.0000
1980-04-25 06:40:00 UTC,2444354.777778,27.9758,-93.5433,0950,3.86,-4.60,6.0000,140.0000
1980-04-25 07:00:00 UTC,2444354.791667,27.9758,-93.5433,0950,2.94,-4.05,5.0000,144.0000
1980-04-25 07:20:00 UTC,2444354.805556,27.9758,-93.5433,0950,3.54,-3.54,5.0000,135.0000
1980-04-25 07:40:00 UTC,2444354.819444,27.9758,-93.5433,0950,4.68,-5.20,7.0000,138.0000
1980-04-25 08:00:00 UTC,2444354.833333,27.9758,-93.5433,0950,5.85,-5.46,8.0000,133.0000
1980-04-25 08:20:00 UTC,2444354.847222,27.9758,-93.5433,0950,7.31,-6.82,10.0000,133.0000
1980-04-25 08:40:00 UTC,2444354.861111,27.9758,-93.5433,0950,8.04,-7.50,11.0000,133.0000
1980-04-25 09:00:00 UTC,2444354.875000,27.9758,-93.5433,0950,7.19,-6.95,10.0000,134.0000
1980-04-25 09:20:00 UTC,2444354.888889,27.9758,-93.5433,0950,7.55,-6.56,10.0000,131.0000
1980-04-25 09:40:00 UTC,2444354.902778,27.9758,-93.5433,0950,7.55,-6.56,10.0000,131.0000
1980-04-25 10:00:00 UTC,2444354.916667,27.9758,-93.5433,0950,8.30,-7.22,11.0000,131.0000
1980-04-25 10:20:00 UTC,2444354.930556,27.9758,-93.5433,0950,6.89,-5.79,9.0000,130.0000
1980-04-25 10:40:00 UTC,2444354.944444,27.9758,-93.5433,0950,7.46,-5.03,9.0000,124.0000
1980-04-25 11:00:00 UTC,2444354.958333,27.9758,-93.5433,0950,7.55,-6.56,10.0000,131.0000
1980-04-25 11:20:00 UTC,2444354.972222,27.9758,-93.5433,0950,6.13,-5.14,8.0000,130.0000
1980-04-25 11:40:00 UTC,2444354.986111,27.9758,-93.5433,0950,5.35,-5.95,8.0000,138.0000
1980-04-25 12:00:00 UTC,2444355.000000,27.9758,-93.5433,0950,5.12,-4.77,7.0000,133.0000
1980-04-25 12:20:00 UTC,2444355.013889,27.9758,-93.5433,0950,5.36,-4.50,7.0000,130.0000
1980-04-25 12:40:00 UTC,2444355.027778,27.9758,-93.5433,0950,6.04,-5.25,8.0000,131.0000
1980-04-25 13:00:00 UTC,2444355.041667,27.9758,-93.5433,0950,4.85,-3.53,6.0000,126.0000
1980-04-25 13:20:00 UTC,2444355.055556,27.9758,-93.5433,0950,6.86,-4.12,8.0000,121.0000
1980-04-25 13:40:00 UTC,2444355.069444,27.9758,-93.5433,0950,6.16,-7.88,10.0000,142.0000
1980-04-25 14:00:00 UTC,2444355.083333,27.9758,-93.5433,0950,7.39,-9.46,12.0000,142.0000
1980-04-25 14:20:00 UTC,2444355.097222,27.9758,-93.5433,0950,6.14,-6.58,9.0000,137.0000
1980-04-25 14:40:00 UTC,2444355.111111,27.9758,-93.5433,0950,5.99,-9.23,11.0000,147.0000
1980-04-25 15:00:00 UTC,2444355.125000,27.9758,-93.5433,0950,6.31,-9.01,11.0000,145.0000
1980-04-25 15:20:00 UTC,2444355.138889,27.9758,-93.5433,0950,7.39,-9.46,12.0000,142.0000
1980-04-25 15:40:00 UTC,2444355.152778,27.9758,-93.5433,0950,8.00,-10.24,13.0000,142.0000
1980-04-25 16:00:00 UTC,2444355.166667,27.9758,-93.5433,0950,8.70,-9.66,13.0000,138.0000
1980-04-25 16:20:00 UTC,2444355.180556,27.9758,-93.5433,0950,7.08,-10.90,13.0000,147.0000
1980-04-25 16:40:00 UTC,2444355.194444,27.9758,-93.5433,0950,8.81,-10.88,14.0000,141.0000
1980-04-25 17:00:00 UTC,2444355.208333,27.9758,-93.5433,0950,8.82,-12.14,15.0000,144.0000
1980-04-25 17:20:00 UTC,2444355.222222,27.9758,-93.5433,0950,7.42,-11.87,14.0000,148.0000
1980-04-25 17:40:00 UTC,2444355.236111,27.9758,-93.5433,0950,5.83,-9.33,11.0000,148.0000
1980-04-25 18:00:00 UTC,2444355.250000,27.9758,-93.5433,0950,5.15,-8.57,10.0000,149.0000
1980-04-25 18:20:00 UTC,2444355.263889,27.9758,-93.5433,0950,5.07,-10.88,12.0000,155.0000
1980-04-25 18:40:00 UTC,2444355.277778,27.9758,-93.5433,0950,4.69,-8.83,10.0000,152.0000
1980-04-25 19:00:00 UTC,2444355.291667,27.9758,-93.5433,0950,2.63,-8.61,9.0000,163.0000
1980-04-25 19:20:00 UTC,2444355.305556,27.9758,-93.5433,0950,3.69,-4.73,6.0000,142.0000
1980-04-25 19:40:00 UTC,2444355.319444,27.9758,-93.5433,0950,3.77,-3.28,5.0000,131.0000
1980-04-25 20:00:00 UTC,2444355.333333,27.9758,-93.5433,0950,4.94,0.78,5.0000,81.0000
1980-04-25 20:20:00 UTC,2444355.347222,27.9758,-93.5433,0950,7.00,0.12,7.0000,89.0000
1980-04-25 20:40:00 UTC,2444355.361111,27.9758,-93.5433,0950,6.96,-0.73,7.0000,96.0000
1980-04-25 21:00:00 UTC,2444355.375000,27.9758,-93.5433,0950,6.85,-1.46,7.0000,102.0000
1980-04-25 21:20:00 UTC,2444355.388889,27.9758,-93.5433,0950,8.93,-1.10,9.0000,97.0000
1980-04-25 21:40:00 UTC,2444355.402778,27.9758,-93.5433,0950,9.85,-1.74,10.0000,100.0000
1980-04-25 22:00:00 UTC,2444355.416667,27.9758,-93.5433,0950,8.09,-3.95,9.0000,116.0000
1980-04-25 22:20:00 UTC,2444355.430556,27.9758,-93.5433,0950,8.09,-3.95,9.0000,116.0000
1980-04-25 22:40:00 UTC,2444355.444444,27.9758,-93.5433,0950,8.02,-4.09,9.0000,117.0000
1980-04-25 23:00:00 UTC,2444355.458333,27.9758,-93.5433,0950,7.36,-3.13,8.0000,113.0000
1980-04-25 23:20:00 UTC,2444355.472222,27.9758,-93.5433,0950,7.06,-3.76,8.0000,118.0000
1980-04-25 23:40:00 UTC,2444355.486111,27.9758,-93.5433,0950,8.22,-3.66,9.0000,114.0000
1980-04-26 00:00:00 UTC,2444355.500000,27.9758,-93.5433,0950,9.56,-2.92,10.0000,107.0000
1980-04-26 00:20:00 UTC,2444355.513889,27.9758,-93.5433,0950,9.46,-3.26,10.0000,109.0000
1980-04-26 00:40:00 UTC,2444355.527778,27.9758,-93.5433,0950,8.22,-3.66,9.0000,114.0000
1980-04-26 01:00:00 UTC,2444355.541667,27.9758,-93.5433,0950,8.99,-4.38,10.0000,116.0000
1980-04-26 01:20:00 UTC,2444355.555556,27.9758,-93.5433,0950,8.22,-3.66,9.0000,114.0000
1980-04-26 01:40:00 UTC,2444355.569444,27.9758,-93.5433,0950,8.40,-3.23,9.0000,111.0000
1980-04-26 02:00:00 UTC,2444355.583333,27.9758,-93.5433,0950,9.40,-3.42,10.0000,110.0000
1980-04-26 02:20:00 UTC,2444355.597222,27.9758,-93.5433,0950,10.05,-4.47,11.0000,114.0000
1980-04-26 02:40:00 UTC,2444355.611111,27.9758,-93.5433,0950,12.36,-6.57,14.0000,118.0000
1980-04-26 03:00:00 UTC,2444355.625000,27.9758,-93.5433,0950,12.99,-7.50,15.0000,120.0000
1980-04-26 03:20:00 UTC,2444355.638889,27.9758,-93.5433,0950,12.99,-7.50,15.0000,120.0000
1980-04-26 03:40:00 UTC,2444355.652778,27.9758,-93.5433,0950,12.14,-8.82,15.0000,126.0000
1980-04-26 04:00:00 UTC,2444355.666667,27.9758,-93.5433,0950,11.74,-7.62,14.0000,123.0000
1980-04-26 04:20:00 UTC,2444355.680556,27.9758,-93.5433,0950,11.61,-7.83,14.0000,124.0000
1980-04-26 04:40:00 UTC,2444355.694444,27.9758,-93.5433,0950,10.29,-6.18,12.0000,121.0000
1980-04-26 05:00:00 UTC,2444355.708333,27.9758,-93.5433,0950,7.91,-7.64,11.0000,134.0000
1980-04-26 05:20:00 UTC,2444355.722222,27.9758,-93.5433,0950,9.06,-7.87,12.0000,131.0000
1980-04-26 05:40:00 UTC,2444355.736111,27.9758,-93.5433,0950,10.04,-11.15,15.0000,138.0000
1980-04-26 06:00:00 UTC,2444355.750000,27.9758,-93.5433,0950,8.81,-10.88,14.0000,141.0000
1980-04-26 06:20:00 UTC,2444355.763889,27.9758,-93.5433,0950,6.02,-6.69,9.0000,138.0000
1980-04-26 06:40:00 UTC,2444355.777778,27.9758,-93.5433,0950,7.78,-7.78,11.0000,135.0000
1980-04-26 07:00:00 UTC,2444355.791667,27.9758,-93.5433,0950,8.03,-8.92,12.0000,138.0000
1980-04-26 07:20:00 UTC,2444355.805556,27.9758,-93.5433,0950,9.06,-7.87,12.0000,131.0000
1980-04-26 07:40:00 UTC,2444355.819444,27.9758,-93.5433,0950,9.23,-5.99,11.0000,123.0000
1980-04-26 08:00:00 UTC,2444355.833333,27.9758,-93.5433,0950,8.29,-5.59,10.0000,124.0000
1980-04-26 08:20:00 UTC,2444355.847222,27.9758,-93.5433,0950,7.66,-6.43,10.0000,130.0000
1980-04-26 08:40:00 UTC,2444355.861111,27.9758,-93.5433,0950,7.19,-6.95,10.0000,134.0000
1980-04-26 09:00:00 UTC,2444355.875000,27.9758,-93.5433,0950,9.06,-7.87,12.0000,131.0000
1980-04-26 09:20:00 UTC,2444355.888889,27.9758,-93.5433,0950,10.29,-6.18,12.0000,121.0000
1980-04-26 09:40:00 UTC,2444355.902778,27.9758,-93.5433,0950,10.78,-7.27,13.0000,124.0000
1980-04-26 10:00:00 UTC,2444355.916667,27.9758,-93.5433,0950,10.39,-6.00,12.0000,120.0000
1980-04-26 10:20:00 UTC,2444355.930556,27.9758,-93.5433,0950,10.79,-5.26,12.0000,116.0000
1980-04-26 10:40:00 UTC,2444355.944444,27.9758,-93.5433,0950,8.66,-5.00,10.0000,120.0000
1980-04-26 11:00:00 UTC,2444355.958333,27.9758,-93.5433,0950,10.27,-3.94,11.0000,111.0000
1980-04-26 11:20:00 UTC,2444355.972222,27.9758,-93.5433,0950,8.46,-3.08,9.0000,110.0000
1980-04-26 11:40:00 UTC,2444355.986111,27.9758,-93.5433,0950,8.65,-2.48,9.0000,106.0000
1980-04-26 12:00:00 UTC,2444356.000000,27.9758,-93.5433,0950,9.34,-3.58,10.0000,111.0000
1980-04-26 12:20:00 UTC,2444356.013889,27.9758,-93.5433,0950,8.22,-3.66,9.0000,114.0000
1980-04-26 12:40:00 UTC,2444356.027778,27.9758,-93.5433,0950,8.99,-4.38,10.0000,116.0000
1980-04-26 13:00:00 UTC,2444356.041667,27.9758,-93.5433,0950,10.05,-4.47,11.0000,114.0000
1980-04-26 13:20:00 UTC,2444356.055556,27.9758,-93.5433,0950,9.40,-3.42,10.0000,110.0000
1980-04-26 13:40:00 UTC,2444356.069444,27.9758,-93.5433,0950,9.34,-3.58,10.0000,111.0000
1980-04-26 14:00:00 UTC,2444356.083333,27.9758,-93.5433,0950,8.65,-2.48,9.0000,106.0000
1980-04-26 14:20:00 UTC,2444356.097222,27.9758,-93.5433,0950,5.94,0.84,6.0000,82.0000
1980-04-26 14:40:00 UTC,2444356.111111,27.9758,-93.5433,0950,7.28,5.29,9.0000,54.0000
1980-04-26 15:00:00 UTC,2444356.125000,27.9758,-93.5433,0950,11.78,2.29,12.0000,79.0000
1980-04-26 15:20:00 UTC,2444356.138889,27.9758,-93.5433,0950,13.86,1.95,14.0000,82.0000
1980-04-26 15:40:00 UTC,2444356.152778,27.9758,-93.5433,0950,13.83,2.19,14.0000,81.0000
1980-04-26 16:00:00 UTC,2444356.166667,27.9758,-93.5433,0950,12.87,1.81,13.0000,82.0000
1980-04-26 16:20:00 UTC,2444356.180556,27.9758,-93.5433,0950,12.90,1.58,13.0000,83.0000
1980-04-26 16:40:00 UTC,2444356.194444,27.9758,-93.5433,0950,11.98,-0.63,12.0000,93.0000
1980-04-26 17:00:00 UTC,2444356.208333,27.9758,-93.5433,0950,13.69,-2.91,14.0000,102.0000
1980-04-26 17:20:00 UTC,2444356.222222,27.9758,-93.5433,0950,14.73,-6.25,16.0000,113.0000
1980-04-26 17:40:00 UTC,2444356.236111,27.9758,-93.5433,0950,11.97,-5.08,13.0000,113.0000
1980-04-26 18:00:00 UTC,2444356.250000,27.9758,-93.5433,0950,12.79,-5.69,14.0000,114.0000
1980-04-26 18:20:00 UTC,2444356.263889,27.9758,-93.5433,0950,11.97,-5.08,13.0000,113.0000
1980-04-26 18:40:00 UTC,2444356.277778,27.9758,-93.5433,0950,14.10,-5.13,15.0000,110.0000
1980-04-26 19:00:00 UTC,2444356.291667,27.9758,-93.5433,0950,12.36,-6.57,14.0000,118.0000
1980-04-26 19:20:00 UTC,2444356.305556,27.9758,-93.5433,0950,10.29,-6.18,12.0000,121.0000
1980-04-26 19:40:00 UTC,2444356.319444,27.9758,-93.5433,0950,11.68,-5.70,13.0000,116.0000
1980-04-26 20:00:00 UTC,2444356.333333,27.9758,-93.5433,0950,11.97,-5.08,13.0000,113.0000
1980-04-26 20:20:00 UTC,2444356.347222,27.9758,-93.5433,0950,12.22,-4.45,13.0000,110.0000
1980-04-26 20:40:00 UTC,2444356.361111,27.9758,-93.5433,0950,12.29,-4.23,13.0000,109.0000
1980-04-26 21:00:00 UTC,2444356.375000,27.9758,-93.5433,0950,13.16,-4.79,14.0000,110.0000
1980-04-26 21:20:00 UTC,2444356.388889,27.9758,-93.5433,0950,11.68,-5.70,13.0000,116.0000
1980-04-26 21:40:00 UTC,2444356.402778,27.9758,-93.5433,0950,9.71,-5.16,11.0000,118.0000
1980-04-26 22:00:00 UTC,2444356.416667,27.9758,-93.5433,0950,10.39,-6.00,12.0000,120.0000
1980-04-26 22:20:00 UTC,2444356.430556,27.9758,-93.5433,0950,10.29,-6.18,12.0000,121.0000
1980-04-26 22:40:00 UTC,2444356.444444,27.9758,-93.5433,0950,8.83,-4.69,10.0000,118.0000
1980-04-26 23:00:00 UTC,2444356.458333,27.9758,-93.5433,0950,10.69,-5.45,12.0000,117.0000
1980-04-26 23:20:00 UTC,2444356.472222,27.9758,-93.5433,0950,9.14,-4.07,10.0000,114.0000
1980-04-26 23:40:00 UTC,2444356.486111,27.9758,-93.5433,0950,8.02,-4.09,9.0000,117.0000
1980-04-27 00:00:00 UTC,2444356.500000,27.9758,-93.5433,0950,8.28,-3.52,9.0000,113.0000
1980-04-27 00:20:00 UTC,2444356.513889,27.9758,-93.5433,0950,9.89,-4.82,11.0000,116.0000
1980-04-27 00:40:00 UTC,2444356.527778,27.9758,-93.5433,0950,14.62,-3.37,15.0000,103.0000
1980-04-27 01:00:00 UTC,2444356.541667,27.9758,-93.5433,0950,12.93,-1.36,13.0000,96.0000
1980-04-27 01:20:00 UTC,2444356.555556,27.9758,-93.5433,0950,13.00,0.23,13.0000,89.0000
1980-04-27 01:40:00 UTC,2444356.569444,27.9758,-93.5433,0950,8.91,1.25,9.0000,82.0000
1980-04-27 02:00:00 UTC,2444356.583333,27.9758,-93.5433,0950,10.99,-0.38,11.0000,92.0000
1980-04-27 02:20:00 UTC,2444356.597222,27.9758,-93.5433,0950,11.74,-2.49,12.0000,102.0000
1980-04-27 02:40:00 UTC,2444356.611111,27.9758,-93.5433,0950,11.74,-2.49,12.0000,102.0000
1980-04-27 03:00:00 UTC,2444356.625000,27.9758,-93.5433,0950,10.27,-3.94,11.0000,111.0000
1980-04-27 03:20:00 UTC,2444356.638889,27.9758,-93.5433,0950,11.20,-4.30,12.0000,111.0000
1980-04-27 03:40:00 UTC,2444356.652778,27.9758,-93.5433,0950,9.14,-4.07,10.0000,114.0000
1980-04-27 04:00:00 UTC,2444356.666667,27.9758,-93.5433,0950,8.99,-4.38,10.0000,116.0000
1980-04-27 04:20:00 UTC,2444356.680556,27.9758,-93.5433,0950,7.55,-6.56,10.0000,131.0000
1980-04-27 04:40:00 UTC,2444356.694444,27.9758,-93.5433,0950,6.79,-5.90,9.0000,131.0000
1980-04-27 05:00:00 UTC,2444356.708333,27.9758,-93.5433,0950,4.32,-4.17,6.0000,134.0000
1980-04-27 05:20:00 UTC,2444356.722222,27.9758,-93.5433,0950,3.94,-3.08,5.0000,128.0000
1980-04-27 05:40:00 UTC,2444356.736111,27.9758,-93.5433,0950,2.12,-3.39,4.0000,148.0000
1980-04-27 06:00:00 UTC,2444356.750000,27.9758,-93.5433,0950,1.24,-3.80,4.0000,162.0000
1980-04-27 06:20:00 UTC,2444356.763889,27.9758,-93.5433,0950,0.62,-2.93,3.0000,168.0000
1980-04-27 06:40:00 UTC,2444356.777778,27.9758,-93.5433,0950,0.17,-1.99,2.0000,175.0000
1980-04-27 07:00:00 UTC,2444356.791667,27.9758,-93.5433,0950,0.03,-2.00,2.0000,179.0000
1980-04-27 07:20:00 UTC,2444356.805556,27.9758,-93.5433,0950,0.42,-2.97,3.0000,172.0000
1980-04-27 07:40:00 UTC,2444356.819444,27.9758,-93.5433,0950,1.30,-3.78,4.0000,161.0000
1980-04-27 08:00:00 UTC,2444356.833333,27.9758,-93.5433,0950,1.24,-3.80,4.0000,162.0000
1980-04-27 08:20:00 UTC,2444356.847222,27.9758,-93.5433,0950,1.30,-3.78,4.0000,161.0000
1980-04-27 08:40:00 UTC,2444356.861111,27.9758,-93.5433,0950,0.88,-1.80,2.0000,154.0000
1980-04-27 09:00:00 UTC,2444356.875000,27.9758,-93.5433,0950,1.26,-1.55,2.0000,141.0000
1980-04-27 09:20:00 UTC,2444356.888889,27.9758,-93.5433,0950,0.41,-0.91,1.0000,156.0000
1980-04-27 09:40:00 UTC,2444356.902778,27.9758,-93.5433,0950,1.44,-1.39,2.0000,134.0000
1980-04-27 10:00:00 UTC,2444356.916667,27.9758,-93.5433,0950,2.93,-0.62,3.0000,102.0000
1980-04-27 10:20:00 UTC,2444356.930556,27.9758,-93.5433,0950,3.95,0.63,4.0000,81.0000
1980-04-27 10:40:00 UTC,2444356.944444,27.9758,-93.5433,0950,3.96,0.56,4.0000,82.0000
1980-04-27 11:00:00 UTC,2444356.958333,27.9758,-93.5433,0950,5.14,3.09,6.0000,59.0000
1980-04-27 11:20:00 UTC,2444356.972222,27.9758,-93.5433,0950,7.77,6.29,10.0000,51.0000